#timestamp,LO_Frequency,Hit,StdDev 
1542092415.2,286046998.9,N
1542092435.0,286046999.0,N
1542092435.9,286046999.0,N
1542092455.8,286046998.4,N
1542092475.6,286046999.3,N
1542092495.4,286046997.3,Y
1542092515.3,286046997.2,P
1542092535.1,286046997.8,N
1542092555.9,286046995.1,P
1542092575.7,286046995.4,Y
1542092595.5,286046997.4,P
1542092615.4,286046999.1,P
1542092635.2,286046999.1,N
1542092655.0,286046997.1,Y
1542092655.9,286046997.1,P
1542092675.8,286046998.7,N
1542092695.6,286047000.7,N
1542092715.5,286046998.8,N
1542092735.3,286046996.7,N
1542092755.1,286046996.7,N
1542092775.9,286046996.7,N
1542092795.7,286046997.9,N
1542092815.6,286046995.1,Y
1542092835.4,286046996.8,P
1542092855.2,286046997.7,P
1542092875.1,286046998.0,P
1542092876.0,286046998.0,Y
1542092895.8,286046998.6,P
1542092915.6,286046998.4,P
1542092935.5,286047000.6,N
1542092955.3,286046998.9,N
1542092975.2,286046999.5,N
1542092995.9,286046996.5,Y
1542093015.7,286046998.8,P
1542093035.6,286046999.3,P
1542093055.4,286046997.0,P
1542093075.3,286046998.3,N
1542093095.1,286046998.3,N
1542093096.0,286046998.3,N
1542093115.8,286046998.1,N
1542093135.7,286046998.5,N
1542093155.5,286046999.5,N
1542093175.3,286046996.5,Y
1542093195.2,286046999.6,P
1542093215.0,286046999.5,N
1542093215.9,286046999.5,N
1542093235.8,286046997.5,Y
1542093255.6,286046997.2,P
1542093275.4,286046996.7,P
1542093295.3,286046997.7,N
1542093315.1,286046996.6,Y
1542093335.9,286046998.6,P
1542093355.7,286046999.5,N
1542093375.5,286046996.6,P
1542093395.4,286046999.6,N
1542093415.2,286046998.9,N
1542093435.0,286046999.1,N
1542093435.9,286046999.1,N
1542093455.8,286046997.2,N
1542093475.6,286046999.2,N
1542093495.5,286046997.3,N
1542093515.3,286046995.7,Y
1542093535.1,286046996.7,P
1542093555.9,286046996.8,P
1542093575.7,286046995.4,P
1542093595.6,286046997.4,N
1542093615.4,286046996.8,Y
1542093635.2,286046999.2,P
1542093655.1,286046996.9,N
1542093656.0,286046996.9,N
1542093675.8,286046997.3,N
1542093695.7,286046997.2,Y
1542093715.5,286047000.6,P
1542093735.3,286046998.7,N
1542093755.2,286047000.5,N
1542093775.9,286047000.6,N
1542093795.7,286047000.5,N
1542093815.6,286046998.4,N
1542093835.4,286046996.8,N
1542093855.3,286046997.4,N
1542093875.1,286046997.1,N
1542093876.0,286046997.1,N
1542093895.8,286046996.9,N
1542093915.7,286046996.7,N
1542093935.5,286046996.7,N
1542093955.3,286046996.8,N
1542093975.2,286046997.4,N
1542093995.0,286046999.3,N
1542093995.9,286046999.3,N
1542094015.8,286046999.3,N
1542094035.6,286046998.8,N
1542094055.4,286046998.3,N
1542094075.3,286046996.9,N
1542094095.1,286046997.4,N
1542094115.8,286046997.5,N
1542094135.7,286046994.9,Y
1542094155.5,286046999.3,P
1542094175.4,286046999.1,N
1542094195.2,286046998.1,P
1542094215.0,286046998.5,N
1542094215.9,286046998.5,Y
1542094235.8,286047000.0,P
1542094255.6,286047000.3,N
1542094275.5,286046998.4,N
1542094295.3,286047000.9,N
1542094315.1,286047000.7,N
1542094335.9,286046998.5,N
1542094355.7,286047000.2,N
1542094375.5,286046998.7,N
1542094395.4,286047001.2,N
1542094415.2,286046998.5,N
1542094435.1,286046998.1,N
1542094436.0,286046998.1,N
1542094455.8,286047000.0,N
1542094475.6,286047000.9,N
1542094495.5,286047000.6,N
1542094515.3,286047001.1,N
1542094535.2,286047001.2,N
1542094555.9,286046998.4,N
1542094575.7,286046998.4,N
1542094595.6,286046999.0,N
1542094615.4,286046998.3,N
1542094635.2,286047000.7,N
1542094655.1,286046999.9,N
1542094656.0,286046999.9,N
1542094675.8,286047001.2,N
1542094695.7,286046998.7,N
1542094715.5,286047002.1,N
1542094735.3,286047002.8,N
1542094755.2,286047000.8,N
1542094775.0,286046998.2,N
1542094775.9,286046998.2,N
1542094795.7,286046999.8,N
1542094815.6,286046998.1,N
1542094835.4,286047000.9,N
1542094855.3,286047002.4,N
1542094875.1,286047002.2,N
1542094876.0,286047002.2,N
1542094895.8,286047001.1,N
1542094915.7,286047000.8,N
1542094935.5,286046998.2,N
1542094955.4,286047000.6,N
1542094975.2,286047001.0,N
1542094995.0,286046999.0,N
1542094995.9,286046999.0,N
1542095015.8,286046998.1,N
1542095035.6,286047001.2,N
1542095055.4,286046998.6,N
1542095075.3,286047001.2,N
1542095095.1,286047002.1,N
1542095115.9,286047001.4,N
1542095135.7,286047000.2,N
1542095155.5,286046999.7,N
1542095175.4,286047002.4,N
1542095195.2,286047000.6,N
1542095215.1,286046998.6,N
1542095216.0,286046998.6,N
1542095235.8,286047000.7,N
1542095255.6,286046998.1,N
1542095275.5,286046999.8,N
1542095295.3,286047002.2,N
1542095315.1,286046999.7,N
1542095335.9,286047002.1,N
1542095355.7,286047001.6,N
1542095375.6,286047002.3,N
1542095395.4,286047000.2,N
1542095415.2,286046999.8,N
1542095435.1,286047000.4,N
1542095436.0,286047000.4,N
1542095455.8,286047002.4,N
1542095475.7,286047000.2,N
1542095495.5,286047000.6,N
1542095515.3,286047000.6,N
1542095535.2,286047002.4,N
1542095555.0,286047000.4,N
1542095555.9,286047000.4,N
1542095575.7,286047001.9,N
1542095595.6,286047002.0,N
1542095615.4,286047001.5,N
1542095635.3,286047002.7,N
1542095655.1,286046999.7,N
1542095656.0,286046999.7,N
1542095675.8,286047001.5,N
1542095695.7,286047001.9,N
1542095715.5,286047004.1,Y
1542095735.4,286046999.9,P
1542095755.2,286047002.6,P
1542095775.0,286047002.4,N
1542095775.9,286047002.4,N
1542095795.8,286047002.8,N
1542095815.6,286047000.1,N
1542095835.4,286047002.4,N
1542095855.3,286047002.8,N
1542095875.1,286047002.7,N
1542095895.9,286047004.4,Y
1542095915.7,286047000.1,P
1542095935.5,286047002.1,N
1542095955.4,286047001.8,N
1542095975.2,286047001.8,N
1542095995.0,286047001.8,N
1542095996.0,286047001.8,N
